CZ-6A DEB

Satellite information

Favourite Embed

Satellite Type and Status

DEBRISIN ORBIT

Key statistics

Satellite CZ-6A DEB at a glance.

Uptime

969

Days in orbit

Revolutions

≈ 14.4

Per day

Orbit

SSO

Sun Synchronous Orbit

Inclination

98.6

Latest

Satellite identification and parameters

Extended collection of information and parameters for CZ-6A DEB.

Object identification

Identified? True

Debris? True

Object name: CZ-6A DEB

International designator: 2022-151BQ

Object number (NORAD): 54321

Object ID (CCSDS): 54321

Country: PEOPLES REPUBLIC OF CHINA (PRC)

Current information (Y/N): Y

RCS size: SMALL

Orbital parameters

Period: 99.951 minutes

Inclination: 98.6346 deg

SMA: 7134.318 km

Apoapsis: 842.597 km

Periapsis: 669.769 km

RAAN: 218.0321 deg

Eccentricy: 0.0121124

Argument of periapsis: 306.2762 deg

Mean anomaly: 52.7285 deg

Mean motion: 14.40701742 rev/day

Mean motion (dot): 0.00000913 rev/day2

B* drag term: 0.00027657 1/REarth

Two-line elements (TLE)

Creation date: July 6, 2025, 10:46 p.m.

Reference frame: TEME

Reference center: EARTH

Epoch: July 6, 2025, 3:59 p.m. UTC

TLE line 0: 0 CZ-6A DEB

TLE line 1: 1 54321U 22151BQ 25187.66631693 .00000913 00000-0 27657-3 0 9992

TLE line 2: 2 54321 98.6346 218.0321 0121124 306.2762 52.7285 14.40701742138536

Live tracking on map

Real-time ground track for satellite CZ-6A DEB.

In-orbit conjunctions

A list of the most updated potential collisions computed for object CZ-6A DEB.

Target Orbit TCA Probability of collision Miss distance Type
COSMOS 1763 LEO 2025-02-21 18:06:13 0.0001044561 843.0 (m) PAYLOAD
FENGYUN 1C DEB SSO 2025-01-04 06:18:20 0.0009361297 28.0 (m) DEBRIS
FENGYUN 1C DEB SSO 2024-11-13 22:34:25 0.0008261867 140.0 (m) DEBRIS

Associated space launch

Chinese satellite reported for atmospheric/ocean/environmental/spatial parameter research purposes, details TBD.

CZ-6A DEB was lifted into orbit during the mission ‘Long March 6A | Yunhai 3’, on board a Long March 6A space rocket.

The launch took place on Nov. 11, 2022, 10:52 p.m. from Launch Complex 9A.

For more information about the launch, click the button.

Launch to space Long March 6A | Yunhai 3
Long March 6A | Yunhai 3

Agency: N/A

Status: Launch Successful

Launch date: Nov. 11, 2022, 10:52 p.m. UTC

Rocket: Long March 6A

Launch pad: Launch Complex 9A

Location: Taiyuan Satellite Launch Center, People's Republic of China

...

Latest news about this satellite

There are no fresh news available about this satellite. Check back as we update our databases every day.


Newsletter sign-up

Weekly statistics, charts and insights to help you stay on top of the space industry.